Regional Weather Roundup
Issued by NWS

Home | Current Version | Previous Version | Graphics & Text | Print | Product List | Glossary Off
Versions: 1 2 3 4 5 6 7 8 9 10 11 12 13 14 15 16 17 18 19 20 21 22 23 24 25 26 27 28 29 30 31 32 33 34 35 36 37 38 39 40 41 42 43 44 45 46 47 48 49 50

000
ASUS43 KTOP 291208
RWRKS

WEATHER ROUNDUP FOR KANSAS
NATIONAL WEATHER SERVICE GOODLAND KS
700 AM CDT WED JUL 29 2015

NOTE:  "FAIR" INDICATES FEW OR NO CLOUDS BELOW 12,000 FEET WITH NO
SIGNIFICANT WEATHER AND/OR OBSTRUCTIONS TO VISIBILITY.

KSZ001>006-013>018-027>032-041>047-291300-
NORTHWEST KANSAS

CITY           SKY/WX    TMP DP  RH WIND       PRES   REMARKS
GOODLAND       PTCLDY    57  51  80 SE3       30.28R
6HR MIN TEMP:  57; 6HR MAX TEMP:  62;

HAYS           CLOUDY    66  55  68 W8        30.23R
HILL CITY      MOCLDY    62  59  90 W8        30.24R
6HR MIN TEMP:  61; 6HR MAX TEMP:  65;

RUSSELL        MOCLDY    65  60  84 E3        30.18R
6HR MIN TEMP:  63; 6HR MAX TEMP:  74;

$$

KSZ061>065-074>080-084>089-291300-
SOUTHWEST KANSAS

CITY           SKY/WX    TMP DP  RH WIND       PRES   REMARKS
DODGE CITY     TSTM      60  56  86 NE17      30.17R
6HR MIN TEMP:  60; 6HR MAX TEMP:  72; 6HR PCP:  0.61;

ELKHART          N/A     65  58  78 E7          N/A
GARDEN CITY    CLOUDY    64  59  83 NE17      30.15S
6HR MIN TEMP:  64; 6HR MAX TEMP:  73; 6HR PCP:  0.14;

GREAT BEND     CLOUDY    64  55  72 W13G33    30.26R
LIBERAL        CLOUDY    64  55  72 NE16      30.14R
PRATT          TSTM      64  63  94 NW12      30.19R
$$

KSZ066>073-081>083-090>101-291300-
SOUTHEAST KANSAS

CITY           SKY/WX    TMP DP  RH WIND       PRES   REMARKS
CHANUTE        MOCLDY    77  68  73 NE13      30.08R
6HR MIN TEMP:  75; 6HR MAX TEMP:  79;

COFFEYVILLE    MOCLDY    74  72  93 NE8       30.04R
6HR MIN TEMP:  73; 6HR MAX TEMP:  77;

HUTCHINSON     CLOUDY    69  66  90 NE15G22   30.08R THUNDER
6HR MIN TEMP:  65; 6HR MAX TEMP:  80; 6HR PCP:  0.42;

MEDICINE LODGE   N/A     72  64  76 N12G25    30.08R
NEWTON         CLOUDY    72  63  73 E13G21    30.11S
PARSONS        MOCLDY    78  73  84 CALM      30.08R
6HR MIN TEMP:  73; 6HR MAX TEMP:  78;

WICHITA INTL   MOCLDY    75  66  73 NE22G30   30.08R
6HR MIN TEMP:  75; 6HR MAX TEMP:  82;

WICHITA JABRA  MOCLDY    73  67  81 NE20G29   30.09R
6HR MIN TEMP:  72; 6HR MAX TEMP:  82;

WICHITA MCCONL MOCLDY    74  66  78 NE23G31   30.08R
WINFIELD       CLOUDY    77  69  76 N8        30.05R
6HR MIN TEMP:  76; 6HR MAX TEMP:  80;

$$

KSZ007>012-019>026-033>040-048>060-102>105-291300-
NORTHEAST KANSAS

CITY           SKY/WX    TMP DP  RH WIND       PRES   REMARKS
CONCORDIA      CLOUDY    64  61  90 CALM      30.15R
6HR MIN TEMP:  64; 6HR MAX TEMP:  73;

EMPORIA        HVY RAIN  69  68  96 SE16      30.10F FOG
6HR MIN TEMP:  69; 6HR MAX TEMP:  80; 6HR PCP:  1.19;

LAWRENCE       LGT RAIN  70  67  90 N3        30.11R
6HR MIN TEMP:  70; 6HR MAX TEMP:  83; 6HR PCP:  0.72;

MANHATTAN      RAIN      70  69  97 VRB3      30.13R
6HR MIN TEMP:  68; 6HR MAX TEMP:  77; 6HR PCP:  0.58;

MARYSVILLE     CLOUDY    64  63  94 NW3       30.15R
OLATHE IND     RAIN      71  69  93 E5        30.11R
6HR MIN TEMP:  70; 6HR MAX TEMP:  82; 6HR PCP:  0.49;

OLATHE EXE     HVY RAIN  71  69  93 W7        30.12R FOG
6HR MIN TEMP:  70; 6HR MAX TEMP:  81; 6HR PCP:  0.21;

SALINA         CLOUDY    69  66  90 NE9       30.12R
6HR MIN TEMP:  66; 6HR MAX TEMP:  79; 6HR PCP:  0.72;

TOPEKA BILLARD LGT RAIN  70  69  97 N5        30.12R
6HR MIN TEMP:  70; 6HR MAX TEMP:  81; 6HR PCP:  2.02;

TOPEKA FORBES  LGT RAIN  71  68  90 SE8       30.12R
6HR MIN TEMP:  71; 6HR MAX TEMP:  84; 6HR PCP:  0.27;

$$



USA.gov is the U.S. government's official web portal to all federal, state and local government web resources and services.